Location: Unspecified
(0.0000°N, 0.0000°E)
Time: 17:20:34
(UTC+00:00)

STARLINK 1054 - Pass Details

Date: 18 January 2020
Orbit: 549 x 551 km, 53.0° (Epoch: 23 January)

Event Time Altitude Azimuth Distance (km) Brightness Sun altitude
Rises 18:48:24 0° 305° (NW) 2,726 7.7 -8.9°
Reaches altitude 10° 18:50:55 10° 292° (WNW) 1,837 7.0 -9.5°
Maximum altitude 18:54:23 25° 236° (SW) 1,142 6.2 -10.3°
Drops below altitude 10° 18:57:53 10° 179° (S) 1,850 6.6 -11.1°
Sets 19:00:29 0° 166° (SSE) 2,768 7.3 -11.7°
